Rae Point,

10:04 PM MDT on May 28, 2017 (GMT -0600)
Rae Point

Weather History for CZRP - September, 2012

Change the Weather History Date:

Monday, September 17, 2012

  Actual Average Record
Temperature  
Mean Temperature 26 °F -  
Max Temperature 28 °F - - ()
Min Temperature 24 °F - - ()
Degree Days  
Heating Degree Days 39    
Moisture  
Dew Point 25 °F    
Average Humidity 94    
Maximum Humidity 96    
Minimum Humidity 88    
Precipitation  
Precipitation 0.00 in - - ()
Sea Level Pressure  
Sea Level Pressure 29.94 in    
Wind  
Wind Speed 10 mph ()    
Max Wind Speed 16 mph    
Max Gust Speed -    
T = Trace of Precipitation, MM = Missing Value Source: Averaged Metar Reports

Daily Weather History Graph

Daily Weather History Graph

Search for Another Location

Airport or City:

Trip Planner

Search our weather history database for the weather conditions in past years. The results will help you decide how hot, cold, wet, or windy it might be!

Date:

Astronomy

Sep. 17, 2012 Rise Set
Actual Time 6:13 AM MDT 7:37 PM MDT
Civil Twilight 4:44 AM MDT 9:05 PM MDT
Nautical Twilight 2:01 AM MDT 11:35 PM MDT
Astronomical Twilight Sun does not set Sun does not set
Moon 10:56 AM MDT (9/17) 5:13 PM MDT (9/17)
Length of Visible Light 16h 20m
Length of Day
13h 24m
Waxing Crescent, 4% of the Moon is Illuminated
Sep 17
Waxing Crescent
Sep 22
First Quarter
Sep 29
Full
Oct 8
Last Quarter
Oct 15
New

Hourly Weather History & Observations

Time (MDT) Temp. Windchill Dew Point Humidity Pressure Visibility Wind Dir Wind Speed Gust Speed Precip Events Conditions
12:00 AM 28 °F - 26 °F 88% 29.97 in - WNW 13.8 mph - -  
12:00 AM 27.7 °F 16.6 °F 25.9 °F 93% 29.97 in - WNW 13.8 mph - N/A   Unknown
1:00 AM 27.9 °F 17.3 °F 26.2 °F 94% 29.97 in - NW 12.7 mph - N/A   Unknown
2:00 AM 27.7 °F 18.2 °F 26.2 °F 94% 29.97 in - NW 10.4 mph - N/A   Unknown
3:00 AM 27.5 °F 17.4 °F 26.4 °F 96% 29.97 in - NNW 11.5 mph - N/A   Unknown
4:00 AM 27.3 °F 18.4 °F 25.7 °F 94% 29.98 in - NNW 9.2 mph - N/A   Unknown
5:00 AM 27.1 °F 16.9 °F 25.9 °F 95% 29.98 in - NNW 11.5 mph - N/A   Unknown
6:00 AM 27 °F - 26 °F 94% 29.98 in - North 10.4 mph - -  
6:00 AM 27.0 °F 17.3 °F 25.9 °F 96% 29.98 in - North 10.4 mph - N/A   Unknown
7:00 AM 27.0 °F 18.7 °F 26.1 °F 96% 29.98 in - NNW 8.1 mph - N/A   Unknown
8:00 AM 27.3 °F 19.1 °F 25.7 °F 94% 29.98 in - NNW 8.1 mph - N/A   Unknown
9:00 AM 26.2 °F 17.1 °F 24.8 °F 94% 29.97 in - NNE 9.2 mph - N/A   Unknown
10:00 AM 24.1 °F 12.5 °F 23.2 °F 96% 29.97 in - North 12.7 mph - N/A   Unknown
12:00 PM 24 °F - 23 °F 92% 29.95 in - North 11.5 mph - -  
12:00 PM 24.3 °F 13.3 °F 22.6 °F 94% 29.95 in - North 11.5 mph - N/A   Unknown
1:00 PM 24.8 °F 15.3 °F 23.5 °F 95% 29.95 in - North 9.2 mph - N/A   Unknown
2:00 PM 26.8 °F 18.5 °F 25.2 °F 94% 29.94 in - North 8.1 mph - N/A   Unknown
3:00 PM 27.7 °F 23.8 °F 25.5 °F 92% 29.95 in - North 3.5 mph - N/A   Unknown
4:00 PM 27.7 °F 19.6 °F 25.9 °F 93% 29.93 in - North 8.1 mph - N/A   Unknown
5:00 PM 27.5 °F 18.6 °F 25.5 °F 92% 29.92 in - NNW 9.2 mph - N/A   Unknown
6:00 PM 26 °F - 25 °F 93% 29.91 in - NNW 10.4 mph - -  
6:00 PM 26.4 °F 16.6 °F 24.8 °F 94% 29.91 in - NNW 10.4 mph - N/A   Unknown
7:00 PM 25.0 °F 13.6 °F 23.9 °F 96% 29.88 in - North 12.7 mph - N/A   Unknown
8:00 PM 25.9 °F 13.3 °F 24.8 °F 96% 29.86 in - North 16.1 mph - N/A   Unknown
9:00 PM 24.6 °F 12.7 °F 23.7 °F 96% 29.84 in - North 13.8 mph - N/A   Unknown
10:00 PM 27.0 °F 16.7 °F 25.9 °F 96% 29.82 in - NNW 11.5 mph - N/A   Unknown
11:00 PM 28.0 °F 18.1 °F 26.1 °F 92% 29.80 in - North 11.5 mph - N/A   Unknown